Wind_Speed
14 10 15 1 4 4 3 4 3 4 3 3 3 7 7 3 3 2 17 16 24 25 25 21 18 16 14 14 13 13 13 13 11 11 11 12 12 14 13 13 13 14 15 17 15 17 16 17 16
12 13 3 2 3 2 5 2 6 2 5 6 5 3 2 2 3 7 15 28 25 26 26 22 18 15 15 14 13 13 11 11 11 12 12 12 11 12 13 13 12 13 14 14 14 15 16 15 16
14 10 3 3 3 5 3 3 7 4 5 3 3 4 4 2 4 18 22 31 26 24 27 22 17 16 15 15 13 13 12 11 11 11 10 10 11 11 11 12 11 12 12 13 14 14 14 14 14
6 6 4 3 6 7 3 6 9 7 4 4 5 7 4 3 23 15 33 29 25 25 25 21 18 16 16 14 13 13 12 11 10 11 10 10 10 11 11 10 10 10 11 11 12 12 12 13 12
3 3 1 1 8 5 3 7 9 7 7 3 4 4 4 4 19 32 31 28 29 32 25 23 19 18 17 15 13 12 11 11 10 10 9 8 8 8 9 9 9 9 8 8 9 9 10 10 10
3 2 3 3 7 7 5 8 9 6 5 4 5 5 2 23 31 32 30 26 29 32 27 24 20 18 17 16 14 14 11 10 9 9 9 8 8 7 7 7 7 8 7 7 7 8 8 9 9
3 3 3 4 5 8 5 5 8 9 7 4 5 4 3 8 28 29 28 26 26 26 26 24 22 18 18 16 15 13 12 11 9 9 8 7 6 6 6 6 6 6 6 5 6 6 6 7 8
3 3 4 4 3 5 4 2 4 9 1 2 4 6 5 11 29 27 27 27 27 26 24 26 21 21 18 17 16 14 14 11 10 9 8 7 6 5 6 6 5 4 3 3 3 3 6 8 9
2 3 3 4 5 2 2 3 5 4 7 3 3 5 9 35 32 27 28 29 30 28 27 24 26 24 22 21 17 15 13 12 11 10 9 8 7 6 2 2 1 0 2 3 4 5 6 6 6
3 2 4 2 3 2 5 6 2 3 5 4 6 8 27 34 34 25 24 24 32 32 31 27 24 23 24 22 21 19 17 15 14 11 8 8 7 5 3 1 2 0 2 4 6 6 5 4 4
4 5 4 6 5 5 3 7 3 5 3 7 11 15 18 21 25 24 26 31 33 29 31 31 27 23 23 27 23 20 19 18 15 11 8 7 6 9 7 6 2 2 2 2 3 2 2 3 4
3 5 5 8 2 4 2 6 7 2 7 6 13 20 15 14 18 24 26 32 33 32 29 29 30 27 26 28 25 19 17 14 14 13 11 9 9 11 8 5 4 3 3 1 0 1 0 1 2
1 3 7 7 8 2 4 5 5 7 9 5 12 17 17 16 20 25 31 32 34 34 32 29 28 29 29 27 24 17 19 18 14 15 15 15 15 14 9 8 7 5 5 4 4 3 2 2 2
4 4 7 7 9 4 5 6 2 5 8 10 13 18 17 19 24 25 31 32 38 38 37 33 32 28 30 26 22 19 21 19 19 19 19 19 17 13 12 11 9 7 6 6 5 4 3 3 2
6 6 8 9 6 7 4 6 7 13 8 11 9 11 15 18 25 29 35 34 40 42 40 38 34 33 30 28 26 23 23 22 21 19 18 16 18 15 14 11 11 8 8 7 7 5 4 3 3
3 2 3 8 6 3 7 8 12 10 8 14 13 9 13 16 26 33 35 40 40 41 43 41 37 35 33 30 27 25 23 22 21 20 19 15 16 16 14 13 12 9 9 9 8 7 6 6 4
4 2 2 7 3 4 4 7 9 8 5 8 10 11 9 15 17 27 37 40 42 43 44 43 41 38 35 31 29 26 25 23 22 21 20 17 17 17 17 15 14 12 12 12 10 9 8 7 6
4 4 6 6 5 3 3 10 10 11 9 10 10 10 9 9 16 29 36 41 40 43 44 44 42 39 36 33 29 26 28 26 25 23 23 20 20 20 20 19 17 15 14 12 11 10 9 8 6
1 3 5 8 1 3 5 8 13 10 7 8 9 10 9 9 9 26 37 38 40 41 42 42 41 40 38 37 34 30 30 29 28 28 26 24 23 23 22 20 19 17 17 15 14 12 11 9 8
2 4 7 7 5 5 6 9 7 9 6 5 7 1 7 6 3 9 27 36 40 41 41 42 43 42 40 39 38 35 34 31 29 27 25 26 25 25 25 24 22 21 20 18 16 15 13 11 9
3 3 2 2 6 5 3 7 8 6 10 14 10 5 8 8 8 2 8 32 38 38 40 42 43 43 42 39 36 32 28 30 31 31 30 29 28 27 27 25 24 23 22 22 21 19 18 14 12
4 1 2 3 5 3 5 2 6 4 9 10 10 10 9 10 8 9 8 6 26 39 40 40 42 42 42 39 38 37 31 26 31 35 34 31 30 29 29 27 26 25 25 24 22 21 21 18 16
5 3 3 1 1 3 4 5 3 4 6 7 9 10 9 9 8 9 9 9 22 25 38 37 39 41 40 41 39 38 34 34 29 32 32 33 31 32 32 31 30 28 27 27 25 24 23 22 21
3 4 4 2 3 2 6 5 4 2 4 3 5 9 9 10 10 8 16 17 7 23 31 36 35 37 39 40 40 40 39 36 33 29 32 33 33 33 33 33 34 33 31 30 29 27 25 25 25
3 4 3 3 3 5 2 4 6 5 6 7 8 9 10 10 10 13 14 16 19 8 22 30 35 35 35 37 40 39 40 39 37 35 33 33 33 35 37 35 37 37 36 35 32 30 29 28 28
3 5 4 2 2 4 3 4 4 6 8 7 8 8 12 12 11 13 14 27 27 21 7 16 24 34 34 34 36 38 39 38 39 38 36 36 38 38 38 37 38 39 38 36 34 34 33 31 30
3 0 3 1 2 2 2 4 6 3 9 8 9 12 10 11 11 13 19 25 27 36 31 10 9 19 28 31 34 35 37 39 39 39 38 38 37 38 37 36 38 40 40 38 37 37 37 35 34
3 2 3 3 1 3 2 4 4 4 8 5 8 9 9 10 12 12 17 23 27 32 35 35 27 13 16 21 27 34 36 38 40 40 39 40 38 38 40 39 38 39 40 41 40 40 39 38 37
1 2 1 2 4 3 1 3 7 12 7 7 8 8 8 9 9 10 16 23 28 32 34 33 35 30 27 17 24 26 30 38 39 40 42 42 42 42 41 42 41 41 41 42 43 43 43 42 41
2 1 3 4 5 1 4 2 7 5 7 9 8 7 7 7 8 7 15 21 24 27 30 31 33 34 33 30 24 22 29 30 34 40 41 40 40 41 43 43 43 43 44 43 45 46 45 45 45
Wind_Direction
325 311 316 13 45 66 278 293 125 87 55 96 67 91 129 56 59 173 152 151 147 149 150 152 148 136 133 136 132 120 116 112 112 98 100 97 93 87 85 86 88 79 75 72 76 76 76 77 85
321 327 352 73 95 52 285 128 85 78 128 100 71 50 78 92 92 134 123 153 150 151 153 150 151 146 143 143 135 137 128 123 118 114 104 99 99 92 86 84 82 82 78 80 78 77 73 78 89
312 293 76 129 171 187 164 257 135 120 100 128 89 61 97 109 92 148 151 152 150 154 153 152 154 151 148 145 142 136 131 124 117 114 109 107 100 100 94 87 87 86 83 78 76 74 75 75 81
308 12 9 100 254 266 177 219 136 119 54 38 98 75 54 271 155 163 150 155 155 152 155 155 157 156 155 153 146 144 137 138 130 122 116 113 105 97 95 94 94 89 84 83 82 79 77 73 75
321 66 11 272 269 262 151 173 147 146 144 162 106 136 82 46 150 150 154 157 157 159 159 157 158 158 157 159 158 153 146 144 137 138 131 120 113 107 104 100 97 93 95 91 86 82 80 81 77
2 87 38 265 270 289 169 190 136 113 129 146 96 102 143 141 143 152 157 158 163 162 158 160 165 164 161 163 160 157 157 157 152 143 134 130 124 115 108 112 104 102 100 97 90 81 78 76 77
118 82 243 280 272 313 183 170 127 137 138 175 145 77 140 159 152 157 159 161 162 163 162 166 169 170 170 171 172 174 167 165 161 158 153 151 146 135 125 108 106 108 105 97 84 74 77 81 84
110 101 297 279 285 291 318 67 116 101 170 149 108 154 182 188 159 161 163 164 164 167 172 173 178 177 178 173 173 170 171 173 174 172 171 175 170 142 123 125 121 117 108 86 75 84 87 87 80
54 49 269 270 318 306 343 67 359 124 116 65 35 147 167 159 159 166 165 165 166 171 176 180 180 182 185 183 180 183 186 183 180 181 184 180 154 131 127 116 34 205 118 97 84 82 93 97 80
110 130 250 262 307 60 10 33 121 82 99 80 71 62 134 153 162 173 172 170 170 173 179 182 184 187 188 190 191 188 184 193 193 199 183 163 180 178 190 286 323 252 121 108 92 84 86 72 66
215 222 258 289 336 85 22 349 5 142 192 187 170 152 154 158 168 177 179 178 179 179 184 188 189 187 185 192 197 195 199 201 204 191 167 167 213 192 208 260 223 182 115 136 103 77 71 70 51
199 275 281 285 10 21 13 325 338 230 223 150 168 164 157 168 177 183 185 185 183 185 191 192 194 191 191 193 198 199 198 194 193 192 194 204 195 191 220 225 222 232 184 189 149 330 11 69 297
317 302 311 311 316 246 324 290 250 281 270 304 153 160 171 177 186 190 193 192 188 190 193 197 193 194 194 196 196 199 203 204 204 204 202 207 215 220 220 221 220 242 223 226 217 227 230 206 298
285 296 296 298 283 266 213 250 202 279 266 282 157 178 179 181 189 189 195 196 193 195 194 196 198 196 193 202 200 204 200 204 204 210 216 219 219 208 211 217 222 219 224 220 226 230 254 255 229
273 306 309 260 242 232 177 315 230 239 245 262 199 195 190 195 187 192 196 197 197 198 196 195 198 201 203 204 207 207 205 208 211 212 216 221 212 210 210 215 219 228 221 229 230 232 234 255 243
273 44 344 295 167 240 124 270 264 279 237 234 236 205 202 204 196 199 197 199 199 196 196 196 197 200 204 206 207 207 207 211 213 211 216 221 211 206 210 217 218 223 218 228 223 223 237 246 249
349 278 281 311 157 136 151 254 262 282 311 241 241 238 217 209 210 202 200 199 199 199 195 194 198 200 203 206 210 209 207 211 209 211 216 223 216 209 215 215 216 217 226 234 229 226 237 238 239
307 338 325 299 295 170 224 264 275 274 276 258 246 234 224 210 207 205 202 200 199 198 197 198 198 202 202 204 208 210 211 212 215 213 219 221 218 216 219 219 218 218 226 229 223 228 233 244 254
306 329 303 284 220 277 253 281 287 288 289 299 265 243 222 214 222 212 200 197 194 194 190 192 192 199 199 200 204 209 207 214 218 223 221 221 221 220 223 222 217 216 225 231 229 231 235 238 241
342 301 288 291 332 15 299 310 326 14 356 357 340 225 266 251 279 200 188 188 189 190 192 191 195 199 200 202 206 212 213 215 220 222 222 220 222 223 225 225 221 218 223 226 225 224 226 234 212
281 235 281 276 331 330 22 19 10 348 35 35 19 37 40 55 23 342 208 181 186 188 192 193 196 200 202 206 207 210 216 220 220 220 222 221 222 225 227 229 226 223 224 228 227 224 226 228 222
278 358 18 7 48 280 75 207 340 344 32 29 17 21 21 32 28 30 20 279 188 192 195 198 200 202 202 206 206 205 207 210 219 221 223 225 225 226 229 232 231 228 227 229 230 229 230 228 227
239 327 273 235 311 14 328 95 244 17 38 19 16 16 15 19 33 30 13 346 219 205 197 200 202 203 202 206 210 209 210 218 223 225 226 227 229 230 232 233 234 232 228 231 232 230 229 231 229
321 331 341 104 103 358 239 124 252 187 137 41 23 23 23 16 11 10 22 29 20 216 206 202 201 204 206 208 211 214 216 220 222 222 224 226 228 231 233 233 234 235 233 230 231 233 234 233 234
43 44 359 27 19 224 207 58 216 179 131 122 86 48 27 17 19 16 6 6 24 17 211 206 207 206 208 210 214 218 223 224 225 226 227 226 227 228 232 232 233 234 234 234 232 233 233 232 233
234 142 148 227 191 266 8 169 211 160 106 76 75 72 46 32 22 22 17 22 12 18 36 219 216 214 213 214 218 222 227 229 231 234 234 233 236 238 239 235 235 235 236 235 233 234 235 236 237
325 3 188 195 296 63 213 31 18 142 77 53 61 60 45 36 28 23 24 27 21 26 22 356 236 231 227 226 228 228 230 232 234 237 239 240 245 247 246 244 239 237 237 236 234 233 234 235 237
187 252 41 11 277 282 291 179 203 194 87 69 60 59 45 37 33 25 25 23 25 26 28 29 23 289 249 241 240 239 237 238 241 241 242 242 244 247 245 243 243 242 240 238 236 235 236 235 237
44 312 216 156 154 175 310 13 341 104 122 94 66 61 52 44 37 30 26 25 24 23 22 21 20 19 19 322 262 247 246 244 243 244 249 249 250 248 248 245 245 243 242 239 236 236 237 235 237
177 15 116 119 303 329 143 34 332 81 90 79 61 58 50 47 33 26 26 28 23 15 15 16 13 9 8 3 5 274 255 249 245 246 249 253 253 253 249 248 244 244 243 241 238 235 234 235 234
Height
785 783 783 782 814 816 819 799 783 791 793 784 782 791 800 802 808 822 811 814 818 823 827 831 833 835 837 839 840 840 841 842 843 843 843 844 843 843 843 843 843 841 842 841 842 841 842 841 841
785 782 781 790 820 833 822 793 800 791 787 785 784 788 798 810 804 809 813 815 818 823 827 830 833 835 837 839 841 842 843 843 844 845 845 845 845 845 845 844 844 844 844 845 845 843 843 844 844
785 785 793 806 819 828 816 794 795 788 783 784 790 787 798 809 806 807 811 815 819 823 827 830 833 835 837 839 840 841 843 843 844 845 846 846 847 847 846 846 847 846 847 846 845 845 845 846 845
784 785 793 812 816 800 792 795 784 787 785 782 790 804 798 799 803 807 811 814 818 823 826 830 833 835 837 839 840 842 843 844 845 845 847 847 847 846 847 848 849 848 848 849 848 848 849 847 846
784 793 812 815 808 792 784 781 779 787 788 787 787 804 806 803 803 806 811 814 817 822 826 829 832 834 836 839 840 842 843 844 845 846 846 847 847 847 848 849 849 850 851 851 850 850 850 849 849
796 798 822 824 809 788 780 775 773 781 787 786 793 802 807 804 804 808 812 815 817 821 825 829 832 834 836 838 840 842 843 844 845 846 847 847 848 849 849 850 850 851 852 851 851 851 850 850 849
797 811 819 812 808 796 778 769 773 780 788 787 783 807 809 806 805 808 812 815 818 822 825 828 831 834 835 837 839 841 842 844 845 846 846 847 848 848 848 850 850 851 852 851 850 851 850 850 851
792 805 808 807 807 800 775 770 768 774 787 777 779 806 812 803 805 809 812 815 818 821 823 827 830 833 834 836 838 840 841 842 844 845 845 846 847 847 848 849 851 851 851 850 850 851 850 851 851
784 815 820 807 797 789 773 777 769 771 779 780 782 786 785 796 804 808 811 814 816 819 821 824 827 830 833 835 837 839 840 841 842 843 844 845 846 847 848 849 849 850 849 850 850 851 851 852 852
797 817 807 789 785 788 781 779 777 779 785 789 790 788 790 796 801 804 807 810 813 815 818 821 824 827 830 832 835 837 838 840 841 842 843 845 846 847 848 848 849 849 849 850 850 851 852 852 852
792 807 792 785 779 778 782 780 776 780 788 785 790 790 791 795 798 802 805 806 809 813 816 818 820 823 825 828 831 834 836 838 839 841 842 844 845 846 847 848 849 849 849 849 850 851 851 851 851
796 785 785 782 774 777 782 779 783 779 778 772 777 781 788 792 795 797 800 803 806 809 813 815 817 820 822 825 828 831 833 835 837 839 841 843 844 845 847 847 848 848 848 849 849 850 850 850 851
789 787 783 781 777 775 775 782 783 780 772 770 774 781 784 788 791 793 796 800 803 805 808 812 815 817 820 822 825 828 830 832 835 837 839 841 842 844 845 846 846 847 847 848 849 849 849 849 849
787 786 785 780 779 778 781 783 781 776 769 769 776 777 778 781 783 789 792 794 796 799 803 807 811 815 817 819 823 825 827 830 833 835 837 839 840 842 843 844 845 846 846 847 847 848 848 848 848
784 793 790 782 777 782 777 790 786 769 770 772 775 775 775 774 777 778 781 786 789 792 797 802 807 811 814 817 821 823 826 828 831 832 834 836 838 839 841 842 843 845 845 846 847 847 847 847 847
792 794 807 780 775 777 780 804 780 768 772 771 768 771 771 770 768 770 773 777 783 787 791 797 802 807 811 815 818 821 823 826 828 830 832 833 835 837 839 841 842 843 844 845 846 846 846 846 846
804 816 803 791 772 779 784 795 774 763 764 768 767 764 764 764 765 765 767 770 775 780 786 792 797 801 807 812 815 818 821 823 825 827 829 830 833 835 837 839 840 842 843 844 844 844 845 844 844
814 810 806 804 783 781 787 793 780 770 767 765 762 760 759 760 758 758 761 765 770 775 780 786 792 797 803 809 813 816 818 820 822 824 825 828 830 832 834 836 838 840 840 841 842 843 843 843 843
798 804 811 796 780 784 789 790 778 768 764 765 761 758 753 752 749 751 754 759 765 770 775 781 787 792 798 803 807 811 812 815 818 820 822 824 826 829 831 833 835 836 837 838 840 840 841 840 840
796 805 810 795 782 786 788 790 778 770 768 764 759 756 756 750 748 748 751 755 760 764 770 776 781 786 792 796 801 805 808 811 814 817 819 821 823 825 827 828 830 832 834 835 836 837 838 838 838
799 804 802 801 795 787 790 799 793 778 771 764 765 762 760 759 757 750 752 751 755 761 766 770 776 781 787 791 798 803 808 810 810 811 813 816 818 820 822 824 826 828 830 831 832 833 834 835 836
807 792 794 797 810 822 796 828 802 789 785 780 777 771 768 763 759 756 756 757 755 756 761 765 771 777 782 787 792 796 799 801 802 805 809 812 814 816 818 819 821 823 825 826 828 830 831 832 832
798 791 795 796 806 812 805 822 800 792 794 790 782 776 771 767 764 763 761 757 757 758 759 763 767 772 778 783 787 791 794 797 800 802 805 807 809 811 813 815 816 818 820 821 824 825 826 827 829
787 793 799 801 815 831 805 809 811 800 791 788 785 781 777 772 768 764 763 759 756 757 760 762 766 770 774 778 782 786 789 792 796 797 799 801 804 806 807 809 811 813 814 816 818 820 822 823 824
794 812 830 824 834 826 788 806 809 793 788 787 788 787 783 780 776 771 766 764 761 758 759 762 765 768 772 775 779 782 785 788 789 792 794 796 798 798 800 803 805 806 808 810 813 814 816 817 818
802 809 830 822 829 817 790 814 805 785 787 788 787 787 786 785 782 779 775 771 767 765 763 765 767 768 771 773 775 778 780 782 784 787 789 791 792 792 795 796 798 800 802 804 807 808 810 811 812
800 812 800 812 810 822 809 797 788 783 794 795 794 791 793 790 788 786 782 780 776 772 769 768 769 770 772 773 774 775 776 778 779 781 784 785 787 788 789 791 792 793 795 797 799 801 802 804 806
797 798 814 822 821 817 810 807 813 798 805 801 801 799 798 795 793 791 789 786 784 781 778 775 773 771 771 771 771 771 772 773 774 777 777 779 781 783 783 784 785 786 787 790 792 793 794 797 797
807 809 804 813 821 827 830 824 803 802 805 807 805 804 802 801 799 796 794 792 789 786 783 781 777 775 772 770 768 767 767 767 769 770 770 772 774 776 777 777 779 779 781 782 783 784 786 787 789
792 798 806 828 821 823 827 838 816 810 806 805 808 807 805 803 802 799 797 796 794 791 787 784 781 776 772 768 765 763 762 762 762 762 763 765 766 768 770 771 771 772 773 774 775 775 776 777 778